Regional Weather Roundup
Issued by NWS

Current Version | Previous Version | Text Only | Print | Product List | Glossary On
Versions: 1 2 3 4 5 6 7 8 9 10 11 12 13 14 15 16 17 18 19 20 21 22 23 24 25 26 27 28 29 30 31 32 33 34 35 36 37 38 39 40 41 42 43 44 45 46 47 48 49 50
000
ASUS45 KTFX 270010
RWRMT
MONTANA REGIONAL WEATHER ROUNDUP
NATIONAL WEATHER SERVICE GREAT FALLS MT
600 PM MDT THU MAY 26 2016

NOTE: "FAIR" INDICATES FEW OR NO CLOUDS BELOW 12000 FEET WITH NO
SIGNIFICANT WEATHER AND/OR OBSTRUCTIONS TO VISIBILITY.

MTZ001>007-043-270100-
WEST OF THE DIVIDE

CITY           SKY/WX    TMP DP  RH WIND       PRES   REMARKS
KALISPELL      LGT RAIN  59  54  83 SE8       29.92S
MISSOULA       MOSUNNY   62  45  53 N8        29.91F
BUTTE          CLOUDY    59  35  40 VRB3      29.96F
MULLAN PASS    CLOUDY    45  41  86 VRB5      30.02F
ANACONDA         N/A     61  37  41 N8        29.93F
DEER LODGE       N/A     61  43  51 CALM      29.94S
EUREKA           N/A     70  43  37 S3        29.88F
HAMILTON         N/A     64  45  48 N14G20    29.90S
LIBBY            N/A     68  41  37 S5        29.90F
$$

MTZ008-052>055-270100-
SOUTHWEST MONTANA

CITY           SKY/WX    TMP DP  RH WIND       PRES   REMARKS
BOZEMAN        MOSUNNY   64  40  41 NW6       29.94S
DILLON         CLOUDY    61  32  33 SW5       29.93S
W YELLOWSTONE  CLOUDY    54  37  54 W10G21    29.99R
ENNIS          SUNNY     61  43  51 NW23      29.98F
$$

MTZ009-010-012-014-046-048-049-054-270100-
EAST SLOPES AND CENTRAL MONTANA

CITY           SKY/WX    TMP DP  RH WIND       PRES   REMARKS
CUT BANK         N/A     57  44  62 NW24G33   29.90R
GREAT FALLS    CLOUDY    57  45  64 N12       29.90R
MALMSTROM AFB  LGT RAIN  57  48  72 NW13G22   29.91R
HELENA         CLOUDY    65  42  43 E7        29.91F
CHOTEAU          N/A     57  50  77 N3        29.91F
$$

MTZ011-013-016-021-045-047-050-051-270100-
NORTH CENTRAL MONTANA

CITY           SKY/WX    TMP DP  RH WIND       PRES   REMARKS
HAVRE            N/A    N/A N/A N/A MISG      29.88S
LEWISTOWN      SUNNY     61  44  53 N10       29.91S
N BAR RANCH    CLOUDY    57  43  58 N14       29.93S
CHINOOK          N/A     63  52  67 E10       29.88S
$$

MTZ017>020-022>027-061-062-270100-
NORTHEAST MONTANA

CITY           SKY/WX    TMP DP  RH WIND       PRES   REMARKS
GLASGOW        CLOUDY    62  54  74 NE18      29.79S
JORDAN           N/A     61  47  59 NW15      29.83F
SIDNEY         CLOUDY    64  50  59 NW14      29.78S
WOLF POINT     CLOUDY    65  52  62 SW5       29.79S
$$

MTZ028>42-056>058-270100-
SOUTHCENTRAL AND SOUTHEAST MONTANA

CITY           SKY/WX    TMP DP  RH WIND       PRES   REMARKS
BAKER          CLOUDY    57  46  66 N17       29.85F
BILLINGS       PTSUNNY   63  42  46 SW10      29.89S
LIVINGSTON     CLOUDY    54  45  71 S6        29.94F
MILES CITY     PTSUNNY   65  43  44 NW10      29.82F
FORSYTH          N/A     63  45  51 W12       29.84F
$$

REGIONAL REPORTS...DAKOTAS

CITY           SKY/WX    TMP DP  RH WIND       PRES   REMARKS
WILLISTON      CLOUDY    66  49  54 N9        29.79R
MINOT          CLOUDY    59  50  72 E8        29.79R
DICKINSON      PTSUNNY   57  41  55 W18       29.79F
BISMARCK       MOSUNNY   69  49  48 NW9G18    29.75S
GRAND FORKS    MOSUNNY   70  55  59 NW15      29.71F
FARGO          SUNNY     76  52  43 NW9       29.71F
BUFFALO SD       N/A     66  39  37 NW18      29.77S
RAPID CITY     CLOUDY    68  42  38 E6        29.82F
$$

REGIONAL REPORTS...WYOMING/IDAHO/WASHINGTON

CITY           SKY/WX    TMP DP  RH WIND       PRES   REMARKS
GILLETTE         N/A     60  38  43 NW8       29.89R
SHERIDAN       PTSUNNY   62  45  53 NW16      29.90F
BUFFALO WY     PTSUNNY   60  43  53 N10       29.94S
CODY           CLOUDY    55  43  62 S13       29.95F
YELLOWSTONE LA   N/A     35  33  92 CALM      30.09R
IDAHO FALLS    MOSUNNY   67  36  31 SW6       29.93F
SALMON         CLOUDY    68  37  32 NW7       29.87F
BOISE          MOSUNNY   74  34  23 W8        29.92F
SPOKANE        PTSUNNY   65  39  38 SW15      29.95F
$$

REGIONAL REPORTS...ALBERTA

CITY           SKY/WX    TMP DP  RH WIND       PRES   REMARKS
EDMONTON       MOSUNNY   66  50  55 W2        29.78F
CALGARY        PTSUNNY   63  45  51 S15       29.82F
LETHBRIDGE     PTSUNNY   64  48  55 SW18      29.84F
MEDICINE HAT   PTSUNNY   68  48  49 S15G21    29.84F
WATERTON GATE    N/A     57  39  51 SW15G25     N/A
MILK RIVER       N/A     66  43  42 SW3         N/A
ONEFOUR          N/A     64  41  42 SE6         N/A
$$

REGIONAL REPORTS...SASKATCHEWAN

CITY           SKY/WX    TMP DP  RH WIND       PRES   REMARKS
SWIFT CURRENT  MOSUNNY   61  48  63 E9        29.87F
REGINA         PTSUNNY   63  52  67 W7        29.86F
SASKATOON      PTSUNNY   73  43  33 VRB5      29.83F
CYPRESS HILLS    N/A     57  41  54 E8          N/A
VAL MARIE        N/A     59  50  72 NE17        N/A
ROCKGLEN         N/A     54  50  87 NE7         N/A
$$



USA.gov is the U.S. government's official web portal to all federal, state and local government web resources and services.